Location: Gleizolles
(44.4833°N, 6.7667°E)
Time: 16:21:04
(UTC+00:00)

Altair - Pass Details

Date: 30 June 2024
Orbit: 1502 x 1681 km, 47.2° (Epoch: 13 July)

Event Time Altitude Azimuth Distance (km) Brightness Sun altitude
Rises 21:33:33 0° 205° (SSW) 4,635 9.7 -16.8°
Reaches altitude 10° 21:36:54 10° 197° (SSW) 3,648 9.1 -17.1°
Maximum altitude 21:44:52 35° 135° (SE) 2,242 7.9 -17.7°
Drops below altitude 10° 21:52:54 10° 74° (ENE) 3,682 9.4 -18.4°
Sets 21:56:16 0° 67° (ENE) 4,684 10.0 -18.6°
